sat.trackr.live / text

‹ back to catalog

STARLINK-11127 [DTC]

NORAD 60119 · 2024-118G

PAYLOAD ACTIVE UNKNOWN

§ Identity

Operator
Country
US
Launch date
2024-06-24
Launch site
AFWTR
Launch vehicle
Mass (kg)
RCS (m²)

Purposes: comms

External: N2YO · Heavens-Above · Gunter

§ Orbital elements

Epoch: 2026-09-21T15:55:54.734016Z

Period
91.74 min
Inclination
53.1596°
Eccentricity
0.0001252
Mean motion
15.69720226 rev/d
Perigee alt
358.9 km
Apogee alt
360.5 km
Semi-major
6,737.8 km
B*
2.4167e-5
RAAN
335.1503°
Arg perigee
80.1226°
Mean anomaly
279.9934°
Rev number
12,877

§ Raw data

STARLINK-11127 [DTC]1 60119U 24118G   26264.66382794  .00002341  00000+0  24167-4 0  99912 60119  53.1596 335.1503 0001252  80.1226 279.9934 15.69720226128775

JSON: /api/v1/satellites/60119 · /tle

For live sub-satellite position, see the globe view (requires WebGL).

§ Visibility from observer

Set your observer location to see the next 7 days of passes ≥ 10°. The values pass through the URL so the page stays shareable.

No JS? Fill the form by hand. The geolocation button needs JavaScript.